Погода в Йокогаме

Япония     41˚02′58″N   141˚15′12″E
темп.,
°C
ветер,
м/с
пор.,
м/с
влажн.,
%
обл.,
%
осадки,
мм/ч
давл.,
гПа
погр.,
м
18 января, пн
пн1800:00−3˚з8126884 0.1 10171246
03:00−2˚з10146485 0.4 10161463
06:00−3˚з9126552 0.0 10161205
09:00−3˚з577876 0.2 1016899
12:00−2˚ююз3476100 0.6 1015758
15:00−2˚вюв4567100 0.8 1010716
18:00−1˚юв61095100 1.8 1007713
21:00−1˚юз71371100 2.5 1004879
19 января, вт
вт1900:00−1˚юз596544 0.0 1001678
03:00−1˚з9129172 0.6 1000898
06:00−3˚з17218396 2.4 10021989
09:00−3˚зсз17217298 4.3 10062339
12:00−4˚зсз161973100 0.6 10112425
15:00−6˚зсз161979100 1.1 10152321
18:00−6˚зсз141877100 0.4 10191992
21:00−6˚зсз131675100 0.7 10221760
20 января, ср
ср2000:00−6˚зсз121580100 0.3 10251647
03:00−5˚зсз131679100 0.6 10251688
06:00−5˚зсз131780100 0.3 10271637
09:00−4˚зсз131678100 0.5 10281663
12:00−2˚зсз131679100 0.3 10281609
15:00−2˚зсз111578100 0.4 10281501
18:00−1˚зсз101381100 0.2 10291240
21:00−2˚зюз71185100 0.4 1029809
21 января, чт
чт2100:00−3˚юз4685100 0.1 1028422
03:00−4˚ю358699 0.4 1026154
06:00−3˚ю478383 0.0 1024264
09:00+2˚зюз6119182 0.6 1024682
12:00+5˚з10178067 0.1 10211418
15:00+4˚з8137534 0.1 10211094
18:00+4˚з7127458 0.0 1021757
21:00+3˚з597679 0.0 1020576
22 января, пт
пт2200:00+2˚юз3580100 0.0 1019339
03:00+3˚юз2486100 0.1 1017351
06:00+4˚з5885100 0.0 1016567
09:00+4˚зсз71074100 0.1 1017896
12:00+4˚зсз8117896 0.1 10161177
15:00+4˚зсз9127497 0.1 10161232
18:00+3˚зсз8127598 0.1 10181136
21:00+1˚сз9127598 0.2 10201080